• In Belarus
  • List of Countries
  • For 7 days
  • Water Temperature
  • Satellite Maps
  • Weather Map
  • Weather Widgets
  • user-avatar
    Login

    Hourly Weather Vanadzor

    Today, 19 July, Friday

    Time Temperature Precipitation Wind Pressure Humidity
    00:00 +18°C° 0 mm 1 mps 633 mmHg 85%
    01:00 +18°C° 0 mm 1 mps 633 mmHg 86%
    02:00 +16°C° 0 mm 1 mps 633 mmHg 87%
    03:00 +16°C° 0 mm 1 mps 633 mmHg 88%
    04:00 +16°C° 0 mm 1 mps 633 mmHg 88%
    05:00 +18°C° 0 mm 1 mps 634 mmHg 89%
    06:00 +18°C° 0 mm 1 mps 634 mmHg 90%
    07:00 +20°C° 0 mm 1 mps 635 mmHg 86%
    08:00 +21°C° 0 mm 1 mps 635 mmHg 83%
    09:00 +23°C° 0 mm 2 mps 636 mmHg 79%
    10:00 +23°C° 0.1 mm 2 mps 636 mmHg 78%
    11:00 +24°C° 0.1 mm 2 mps 636 mmHg 76%
    12:00 +24°C° 0.1 mm 3 mps 636 mmHg 74%
    13:00 +24°C° 0.2 mm 3 mps 636 mmHg 75%
    14:00 +24°C° 0.2 mm 3 mps 636 mmHg 75%
    15:00 +25°C° 0.2 mm 3 mps 635 mmHg 75%
    16:00 +24°C° 0.1 mm 3 mps 635 mmHg 78%
    17:00 +22°C° 0.1 mm 3 mps 635 mmHg 80%
    18:00 +23°C° 0.1 mm 2 mps 635 mmHg 83%
    19:00 +21°C° 0 mm 2 mps 636 mmHg 85%
    20:00 +19°C° 0 mm 2 mps 636 mmHg 88%
    21:00 +18°C° 0 mm 2 mps 636 mmHg 91%
    22:00 +19°C° 0 mm 1 mps 636 mmHg 91%
    23:00 +18°C° 0 mm 1 mps 636 mmHg 92%

    Tomorrow, 20 July, Saturday

    Time Temperature Precipitation Wind Pressure Humidity
    00:00 +18°C° 0 mm 1 mps 637 mmHg 92%
    01:00 +18°C° 0 mm 1 mps 637 mmHg 93%
    02:00 +18°C° 0 mm 1 mps 636 mmHg 93%
    03:00 +16°C° 0 mm 1 mps 636 mmHg 94%
    04:00 +18°C° 0 mm 1 mps 637 mmHg 94%
    05:00 +18°C° 0 mm 1 mps 637 mmHg 94%
    06:00 +19°C° 0 mm 1 mps 637 mmHg 94%
    07:00 +20°C° 0 mm 1 mps 638 mmHg 89%
    08:00 +20°C° 0 mm 2 mps 638 mmHg 84%
    09:00 +23°C° 0 mm 2 mps 638 mmHg 79%
    10:00 +23°C° 0 mm 2 mps 638 mmHg 78%
    11:00 +24°C° 0 mm 2 mps 638 mmHg 76%
    12:00 +25°C° 0 mm 2 mps 638 mmHg 75%
    13:00 +25°C° 0 mm 2 mps 638 mmHg 75%
    14:00 +25°C° 0 mm 2 mps 638 mmHg 75%
    15:00 +25°C° 0 mm 2 mps 638 mmHg 74%
    16:00 +25°C° 0 mm 2 mps 638 mmHg 77%
    17:00 +24°C° 0 mm 2 mps 638 mmHg 80%
    18:00 +24°C° 0 mm 2 mps 638 mmHg 82%
    19:00 +23°C° 0 mm 2 mps 638 mmHg 85%
    20:00 +20°C° 0 mm 2 mps 638 mmHg 87%
    21:00 +20°C° 0 mm 1 mps 638 mmHg 90%
    22:00 +20°C° 0 mm 1 mps 638 mmHg 89%
    23:00 +19°C° 0 mm 1 mps 638 mmHg 88%

    Day after tomorrow, 21 July, Sunday

    Time Temperature Precipitation Wind Pressure Humidity
    00:00 +18°C° 0 mm 1 mps 638 mmHg 88%
    01:00 +18°C° 0 mm 1 mps 638 mmHg 88%
    02:00 +18°C° 0 mm 1 mps 637 mmHg 88%
    03:00 +16°C° 0 mm 1 mps 637 mmHg 88%
    04:00 +16°C° 0 mm 1 mps 637 mmHg 88%
    05:00 +18°C° 0 mm 1 mps 638 mmHg 88%
    06:00 +18°C° 0 mm 1 mps 638 mmHg 88%
    07:00 +20°C° 0 mm 1 mps 638 mmHg 83%
    08:00 +20°C° 0 mm 2 mps 638 mmHg 78%
    09:00 +23°C° 0 mm 2 mps 639 mmHg 72%
    10:00 +24°C° 0 mm 2 mps 639 mmHg 71%
    11:00 +25°C° 0 mm 3 mps 639 mmHg 69%
    12:00 +26°C° 0 mm 3 mps 639 mmHg 68%
    13:00 +26°C° 0 mm 3 mps 638 mmHg 68%
    14:00 +26°C° 0 mm 3 mps 638 mmHg 67%
    15:00 +26°C° 0 mm 3 mps 638 mmHg 67%
    16:00 +26°C° 0 mm 3 mps 637 mmHg 70%
    17:00 +25°C° 0 mm 3 mps 637 mmHg 73%
    18:00 +25°C° 0 mm 2 mps 637 mmHg 76%
    19:00 +23°C° 0 mm 2 mps 637 mmHg 79%
    20:00 +20°C° 0 mm 2 mps 637 mmHg 82%
    21:00 +18°C° 0 mm 2 mps 637 mmHg 85%
    22:00 +19°C° 0 mm 1 mps 637 mmHg 84%
    23:00 +18°C° 0 mm 1 mps 636 mmHg 84%

    22 July, Monday

    Time Temperature Precipitation Wind Pressure Humidity
    00:00 +18°C° 0 mm 1 mps 636 mmHg 83%
    01:00 +18°C° 0 mm 1 mps 636 mmHg 83%
    02:00 +18°C° 0 mm 1 mps 636 mmHg 83%
    03:00 +16°C° 0 mm 1 mps 636 mmHg 83%
    04:00 +18°C° 0 mm 1 mps 636 mmHg 84%
    05:00 +18°C° 0 mm 1 mps 636 mmHg 84%
    06:00 +18°C° 0 mm 1 mps 636 mmHg 84%
    07:00 +20°C° 0 mm 1 mps 637 mmHg 78%
    08:00 +22°C° 0 mm 1 mps 637 mmHg 73%
    09:00 +24°C° 0 mm 2 mps 637 mmHg 67%
    10:00 +26°C° 0 mm 2 mps 637 mmHg 65%
    11:00 +27°C° 0 mm 2 mps 637 mmHg 63%
    12:00 +28°C° 0 mm 2 mps 637 mmHg 60%
    13:00 +28°C° 0 mm 2 mps 637 mmHg 62%
    14:00 +28°C° 0 mm 3 mps 637 mmHg 63%
    15:00 +28°C° 0 mm 3 mps 636 mmHg 64%
    16:00 +27°C° 0.1 mm 3 mps 636 mmHg 68%
    17:00 +26°C° 0.1 mm 3 mps 636 mmHg 72%
    18:00 +26°C° 0.1 mm 3 mps 635 mmHg 75%
    19:00 +24°C° 0 mm 2 mps 635 mmHg 79%
    20:00 +21°C° 0 mm 2 mps 635 mmHg 82%
    21:00 +20°C° 0 mm 1 mps 635 mmHg 86%
    22:00 +20°C° 0 mm 1 mps 635 mmHg 86%
    23:00 +19°C° 0 mm 1 mps 635 mmHg 86%

    23 July, Tuesday

    Time Temperature Precipitation Wind Pressure Humidity
    00:00 +19°C° 0 mm 1 mps 635 mmHg 86%
    01:00 +18°C° 0 mm 1 mps 634 mmHg 87%
    02:00 +18°C° 0 mm 1 mps 634 mmHg 88%
    03:00 +18°C° 0 mm 1 mps 634 mmHg 89%
    04:00 +18°C° 0 mm 1 mps 634 mmHg 89%
    05:00 +18°C° 0 mm 1 mps 634 mmHg 90%
    06:00 +19°C° 0 mm 1 mps 635 mmHg 91%
    07:00 +20°C° 0 mm 1 mps 635 mmHg 87%
    08:00 +21°C° 0 mm 2 mps 635 mmHg 82%
    09:00 +23°C° 0 mm 2 mps 635 mmHg 78%
    10:00 +24°C° 0 mm 2 mps 635 mmHg 77%
    11:00 +24°C° 0 mm 2 mps 635 mmHg 76%
    12:00 +24°C° 0 mm 2 mps 635 mmHg 75%
    13:00 +25°C° 0.1 mm 2 mps 634 mmHg 75%
    14:00 +25°C° 0.1 mm 2 mps 634 mmHg 74%
    15:00 +25°C° 0.1 mm 2 mps 634 mmHg 74%
    16:00 +25°C° 0.2 mm 2 mps 633 mmHg 76%
    17:00 +25°C° 0.2 mm 2 mps 633 mmHg 78%
    18:00 +24°C° 0.2 mm 2 mps 633 mmHg 81%
    19:00 +23°C° 0 mm 2 mps 633 mmHg 83%
    20:00 +21°C° 0 mm 1 mps 634 mmHg 86%
    21:00 +20°C° 0 mm 1 mps 634 mmHg 88%
    22:00 +20°C° 0 mm 1 mps 634 mmHg 88%
    23:00 +19°C° 0 mm 1 mps 633 mmHg 88%

    24 July, Wednesday

    Time Temperature Precipitation Wind Pressure Humidity
    00:00 +19°C° 0 mm 1 mps 633 mmHg 88%
    01:00 +18°C° 0 mm 1 mps 633 mmHg 87%
    02:00 +18°C° 0 mm 1 mps 633 mmHg 87%
    03:00 +18°C° 0 mm 1 mps 633 mmHg 87%
    04:00 +18°C° 0 mm 1 mps 633 mmHg 86%
    05:00 +19°C° 0 mm 1 mps 633 mmHg 86%
    06:00 +19°C° 0 mm 1 mps 633 mmHg 86%
    07:00 +21°C° 0 mm 1 mps 634 mmHg 80%
    08:00 +23°C° 0 mm 1 mps 634 mmHg 75%
    09:00 +25°C° 0 mm 1 mps 635 mmHg 69%
    10:00 +26°C° 0.2 mm 1 mps 635 mmHg 63%
    11:00 +28°C° 0.2 mm 2 mps 635 mmHg 57%
    12:00 +29°C° 0.2 mm 2 mps 635 mmHg 51%
    13:00 +29°C° 0.2 mm 2 mps 635 mmHg 49%
    14:00 +30°C° 0.2 mm 2 mps 635 mmHg 46%
    15:00 +30°C° 0.2 mm 2 mps 634 mmHg 43%
    16:00 +29°C° 0.1 mm 2 mps 634 mmHg 52%
    17:00 +28°C° 0.1 mm 2 mps 634 mmHg 61%
    18:00 +27°C° 0.1 mm 2 mps 633 mmHg 70%
    19:00 +25°C° 0 mm 2 mps 633 mmHg 74%
    20:00 +23°C° 0 mm 1 mps 633 mmHg 79%
    21:00 +21°C° 0 mm 1 mps 633 mmHg 83%
    22:00 +20°C° 0 mm 1 mps 634 mmHg 82%
    23:00 +20°C° 0 mm 1 mps 634 mmHg 82%
    Show more